COSMOS 1275 DEB, 12963

Orbit data source: Space-Track

COSMOS 1275 DEB, 12963 is space debris in LEO originally from a launch on Thu, 04 Jun 1981 UTC launched from the Plesetsk Missile And Space Complex (PKMTR). Debris objects in space refer to the collection of defunct objects orbiting the Earth. Examples of debris include non-operational satellites, rocket bodies, and fragments generated from explosions, collisions, or faulty payload assembly.

Loading next visibility...
Identifier
12963, 1981-053EJ
Orbit
LEO
Country
Flag of CISCIS
Related business
Manufacturer
Unknown
Mission
Spacecraft
Bus & Motor
Unknown
Mass
Unknown
Launch date (UTC)
1981-06-04 (44 years ago)
Launch vehicle
Unknown
Launch site
Plesetsk Missile And Space Complex (PKMTR)
Object type
Payload
Rocket body
Debris
Shape & HBR
Unknown shape, 0.1 m
Radar Cross Section
Small (<0.1 m²)

Expand to show TLE details & history
Last TLE update: 1 day ago

TLE from 1 day ago
0 COSMOS 1275 DEB
1 12963U 81053EJ  25301.57337125  .00000535  00000-0  47352-3 0  9999
2 12963  82.9470 346.5233 0025434 151.6791   0.8732 13.83106910213836
Epoch: 2025-10-28T13:45Z
TLE epoch observation values (Epoch: 2025-10-28T13:45:39.276Z)
Latitude
27.25686°
Longitude
-80.68469°
Altitude
937.577 km
Speed
7.395 km/s
True Right ascension
10h 51m 33s
True Declination
27° 07' 14"
Sunlit
Object was in daylight at epoch
Visualization orbit readout
Latitude
Unknown
Longitude
Unknown
Altitude
Unknown
Speed
Unknown
Apparent Right ascension
Unknown
Apparent Declination
Unknown
Sunlit
N/A
Visualization observer readout
Local Sidereal Time
09:35:48
Azimuth
Unknown
Elevation
Unknown
Doppler factor
Unknown
Orbital elements
Apogee altitude
968.663 km
Perigee altitude
931.386 km
Semi-major axis
7,328.162 km
Eccentricity
0.00254
Inclination
82.947°
RAAN
346.5233°
Arg. of periapsis
151.6791°
True anomaly
0.87766°
Mean anomaly
0.8732°
Eccentric anomaly
0.87543°
Mean motion
3.4598 °/min
Orbital period
104.05 mins
BSTAR
0.00047352
Loading maneuver chart data...
Computing Atmospheric mass density...
Loading historical data...
Loading historical data...
Loading historical data...
Loading historical data...
Loading historical data...
Loading historical data...
Loading historical data...

Documentation

Showing up to 5 results
|